Torna al catalogo

BREEZE-M DEB

TANK

AttivoHEO
NORAD 40507·DEBRIS·🇷🇺 Russia

Lanciato Mar 18, 2015 da Baikonur Cosmodrome

Loading…

Prossimi Passaggi (prossime 24 ore)

TLE

AggiornatoSource: Space-Track

Epoca: Sep 12, 2026, 12:59 UTC

1 40507U 15012C   26255.54152782  .00002771  00000-0  75572-3 0  9995
2 40507  49.4772  90.7898 5344987 350.3041   2.5262  5.02330618203705

Traccia BREEZE-M DEB in tempo reale con AllMySat

Download on the App Store